Date String (YYYY-MM-DD hh:mm:ss) UTC,Instrument flags,absolute air pressure of the measurement (hPa),sample flow rate (lpm),inlet stack bypass flow (lpm),air temperature of the measurement (°C),ambient temperature measured by the external sensor (°C),aerosol sample conditioner tube jacket temperature (°C),OPC LED temperature (°C),internal box temperature (°C),relative humidity of the measurement (%),span deviation,mass concentration of particles derived from Lorenz-Mie calculation of OPC scattering (μg/m³),mass concentration of particles derived from Lorenz-Mie calculation of OPC scattering (μg/m³),mass concentration of particles derived from Lorenz-Mie calculation of OPC scattering (μg/m³)
DateTimeUTC,F1_M11,P_M11,Q1_M11,Q2_M11,T1_M11,T2_M11,T3_M11,T4_M11,T5_M11,U1_M11,ZSPAN_M11,X2_M11,X0_M11,X1_M11
2023-08-25 23:00:00,SystemResetWarning,0840.0,4.99,000.00,029.7,026.3,000.0,038.2,030.4,34.9,0000.0,0004.04,0006.09,0003.76
2023-08-25 23:01:00,SystemResetWarning,0840.1,5.00,000.00,029.7,026.6,000.0,038.2,030.4,34.8,0000.0,0004.02,0005.93,0003.74
2023-08-25 23:02:00,SystemResetWarning,0840.1,5.00,000.00,029.7,026.8,000.0,038.1,030.4,34.8,0000.0,0004.02,0006.00,0003.72
2023-08-25 23:03:00,SystemResetWarning,0840.1,5.00,000.00,029.7,027.0,000.0,038.1,030.5,34.9,-000.1,0004.02,0006.02,0003.71
2023-08-25 23:04:00,SystemResetWarning,0840.1,5.00,000.00,029.7,027.1,000.0,038.1,030.5,35.0,-000.0,0004.02,0006.04,0003.70
2023-08-25 23:05:00,SystemResetWarning,0840.1,5.01,000.00,029.7,027.2,000.0,038.1,030.6,34.9,-000.6,0004.01,0006.16,0003.69
2023-08-25 23:06:00,SystemResetWarning,0840.1,4.98,000.00,029.8,027.3,000.0,038.1,030.6,34.8,-000.2,0003.99,0006.53,0003.69
2023-08-25 23:07:00,SystemResetWarning,0840.1,5.01,000.00,029.8,027.4,000.0,038.1,030.6,34.7,-001.1,0003.95,0006.32,0003.68
2023-08-25 23:08:00,SystemResetWarning,0840.1,5.00,000.00,029.8,027.5,000.0,038.2,030.6,34.7,-001.6,0003.91,0006.25,0003.68
2023-08-25 23:09:00,SystemResetWarning,0840.1,5.01,000.00,029.8,027.5,000.0,038.2,030.7,34.7,-001.7,0003.92,0006.25,0003.68
2023-08-25 23:10:00,SystemResetWarning,0840.1,5.00,000.00,029.8,027.6,000.0,038.2,030.7,34.7,-001.6,0003.92,0006.25,0003.68
2023-08-25 23:11:00,SystemResetWarning,0840.1,5.00,000.00,029.8,027.7,000.0,038.2,030.7,34.6,0000.0,0003.92,0006.25,0003.69
2023-08-25 23:12:00,SystemResetWarning,0840.1,4.99,000.00,029.8,027.7,000.0,038.2,030.7,34.7,-001.2,0003.92,0006.24,0003.70
2023-08-25 23:13:00,SystemResetWarning,0840.1,4.99,000.00,029.8,027.7,000.0,038.2,030.7,34.8,-000.5,0003.92,0006.21,0003.71
2023-08-25 23:14:00,SystemResetWarning,0840.1,5.00,000.00,029.8,027.8,000.0,038.2,030.8,34.9,0000.3,0003.90,0006.12,0003.73
2023-08-25 23:15:00,SystemResetWarning,0840.1,5.00,000.00,029.8,027.8,000.0,038.2,030.8,34.9,0000.3,0003.89,0006.04,0003.74
2023-08-25 23:16:00,SystemResetWarning,0840.0,5.01,000.00,029.8,027.8,000.0,038.2,030.8,35.2,0000.1,0003.89,0005.91,0003.73
2023-08-25 23:17:00,SystemResetWarning,0840.1,5.02,000.00,030.0,027.9,000.0,038.2,030.9,34.8,0000.0,0003.88,0005.49,0003.73
2023-08-25 23:18:00,SystemResetWarning,0840.1,4.97,000.00,030.2,027.2,000.0,038.2,030.9,34.4,0000.0,0003.90,0005.50,0003.73
2023-08-25 23:19:00,SystemResetWarning,0840.1,5.02,000.00,030.2,025.4,000.0,038.0,030.6,34.1,0000.0,0003.90,0005.42,0003.72
2023-08-25 23:20:00,SystemResetWarning,0840.0,5.01,000.00,030.2,024.6,000.0,038.0,030.4,34.1,0000.0,0003.89,0005.37,0003.71
2023-08-25 23:21:00,SystemResetWarning,0840.1,5.00,000.00,030.0,024.7,000.0,038.0,030.0,34.4,0000.0,0003.92,0005.44,0003.71
2023-08-25 23:22:00,SystemResetWarning,0840.1,5.01,000.00,029.9,025.0,000.0,038.1,030.1,34.8,0000.0,0003.92,0005.43,0003.71
2023-08-25 23:23:00,SystemResetWarning,0840.1,4.98,000.00,029.9,025.4,000.0,038.1,030.2,35.0,0000.0,0003.91,0005.46,0003.69
2023-08-25 23:24:00,SystemResetWarning,0840.1,5.02,000.00,029.9,025.8,000.0,038.1,030.3,35.0,0000.0,0003.90,0005.39,0003.68
2023-08-25 23:25:00,SystemResetWarning,0840.2,4.98,000.00,030.0,026.2,000.0,038.1,030.4,34.6,0000.0,0003.89,0005.33,0003.68
2023-08-25 23:26:00,SystemResetWarning,0840.2,5.00,000.00,030.1,026.5,000.0,038.2,030.5,34.5,0000.0,0003.91,0005.42,0003.68
2023-08-25 23:27:00,SystemResetWarning,0840.2,5.02,000.00,030.1,026.7,000.0,038.2,030.5,34.4,0000.0,0003.92,0005.49,0003.68
2023-08-25 23:28:00,SystemResetWarning,0840.2,4.99,000.00,030.1,026.9,000.0,038.2,030.5,34.5,0000.0,0003.91,0005.45,0003.68
2023-08-25 23:29:00,SystemResetWarning,0840.2,5.00,000.00,030.1,027.1,000.0,038.2,030.6,34.4,0000.0,0003.90,0005.39,0003.68
2023-08-25 23:30:00,SystemResetWarning,0840.2,5.00,000.00,030.1,027.2,000.0,038.3,030.6,34.5,0000.0,0003.89,0005.41,0003.67
2023-08-25 23:31:00,SystemResetWarning,0840.2,5.00,000.00,030.1,027.3,000.0,038.3,030.6,34.5,0000.0,0003.89,0005.47,0003.67
2023-08-25 23:32:00,SystemResetWarning,0840.2,5.00,000.00,030.1,027.4,000.0,038.3,030.6,34.6,0000.0,0003.87,0005.43,0003.67
2023-08-25 23:33:00,SystemResetWarning,0840.2,5.00,000.00,030.1,027.5,000.0,038.3,030.7,34.6,0000.0,0003.86,0005.40,0003.67
2023-08-25 23:34:00,SystemResetWarning,0840.2,5.00,000.00,030.1,027.6,000.0,038.4,030.7,34.7,0000.0,0003.89,0005.45,0003.69
2023-08-25 23:35:00,SystemResetWarning,0840.2,5.00,000.00,030.1,027.6,000.0,038.4,030.7,34.8,0000.0,0003.92,0005.59,0003.70
2023-08-25 23:36:00,SystemResetWarning,0840.2,5.00,000.00,030.1,027.7,000.0,038.4,030.8,34.7,0000.0,0003.95,0005.74,0003.71
2023-08-25 23:37:00,SystemResetWarning,0840.2,5.00,000.00,030.1,027.7,000.0,038.4,030.8,34.7,0000.0,0003.97,0005.86,0003.72
2023-08-25 23:38:00,SystemResetWarning,0840.2,4.99,000.00,030.1,027.8,000.0,038.4,030.8,34.9,0000.5,0003.99,0005.98,0003.73
2023-08-25 23:39:00,SystemResetWarning,0840.2,4.99,000.00,030.1,027.8,000.0,038.4,030.8,34.9,0001.9,0004.02,0006.05,0003.76
2023-08-25 23:40:00,SystemResetWarning,0840.2,4.99,000.00,030.1,027.8,000.0,038.4,030.9,35.1,0000.4,0004.07,0006.30,0003.77
2023-08-25 23:41:00,SystemResetWarning,0840.2,5.02,000.00,030.3,027.9,000.0,038.4,031.0,34.8,0000.0,0004.12,0006.46,0003.81
2023-08-25 23:42:00,SystemResetWarning,0840.2,4.97,000.00,030.4,027.9,000.0,038.5,031.1,34.4,0000.0,0004.16,0006.51,0003.85
2023-08-25 23:43:00,SystemResetWarning,0840.1,5.03,000.00,030.5,027.9,000.0,038.5,031.1,34.1,0001.1,0004.18,0006.50,0003.88
2023-08-25 23:44:00,SystemResetWarning,0840.1,4.97,000.00,030.6,027.5,000.0,038.5,031.0,34.1,0001.1,0004.22,0006.60,0003.90
2023-08-25 23:45:00,SystemResetWarning,0840.2,5.01,000.00,030.6,025.6,000.0,038.3,030.8,34.0,0000.9,0004.24,0006.69,0003.93
2023-08-25 23:46:00,SystemResetWarning,0840.2,5.00,000.00,030.5,024.7,000.0,038.2,030.5,34.1,0000.7,0004.25,0006.67,0003.95
2023-08-25 23:47:00,SystemResetWarning,0840.2,5.00,000.00,030.3,024.7,000.0,038.3,030.3,34.4,0000.1,0004.28,0006.70,0003.98
2023-08-25 23:48:00,SystemResetWarning,0840.2,5.00,000.00,030.2,025.1,000.0,038.3,030.2,34.8,-000.3,0004.27,0006.56,0003.99
2023-08-25 23:49:00,SystemResetWarning,0840.2,4.98,000.00,030.1,025.5,000.0,038.4,030.3,35.2,-000.1,0004.26,0006.37,0004.00
2023-08-25 23:50:00,SystemResetWarning,0840.2,5.04,000.00,030.2,025.9,000.0,038.4,030.5,34.9,0000.1,0004.25,0006.30,0004.01
2023-08-25 23:51:00,SystemResetWarning,0840.2,4.96,000.00,030.4,026.2,000.0,038.4,030.6,34.6,0000.1,0004.25,0006.18,0004.02
2023-08-25 23:52:00,SystemResetWarning,0840.1,5.02,000.00,030.5,026.5,000.0,038.4,030.7,34.4,0000.3,0004.23,0006.05,0004.02
2023-08-25 23:53:00,SystemResetWarning,0840.2,5.00,000.00,030.5,026.8,000.0,038.4,030.7,34.4,0000.1,0004.22,0006.00,0004.02
2023-08-25 23:54:00,SystemResetWarning,0840.2,4.99,000.00,030.5,027.0,000.0,038.5,030.7,34.5,0000.4,0004.22,0005.99,0004.03
2023-08-25 23:55:00,SystemResetWarning,0840.1,5.00,000.00,030.5,027.1,000.0,038.5,030.7,34.4,0000.7,0004.20,0005.92,0004.03
2023-08-25 23:56:00,SystemResetWarning,0840.2,5.00,000.00,030.5,027.3,000.0,038.5,030.7,34.4,0000.7,0004.18,0005.82,0004.02
2023-08-25 23:57:00,SystemResetWarning,0840.2,4.99,000.00,030.5,027.4,000.0,038.6,030.8,34.4,0001.0,0004.17,0005.76,0004.01
2023-08-25 23:58:00,SystemResetWarning,0840.2,5.00,000.00,030.5,027.5,000.0,038.6,030.8,34.4,0001.2,0004.15,0005.68,0004.00
2023-08-25 23:59:00,SystemResetWarning,0840.3,5.00,000.00,030.5,027.6,000.0,038.6,030.8,34.5,0001.3,0004.13,0005.61,0003.99
